Погода в Петухово-Селе

Россия / Курганская область     55°06′09″N   67°57′26″E
темп.,
°C
ветер,
м/с
пор.,
м/с
влажн.,
%
обл.,
%
осадки,
мм/ч
давл.,
гПа
погр.,
м
16 мая, вс
вс1623:00+21юз33420 0.0 101828
02:00+19зюз512534 0.2 1018183
05:00+18зсз4956100 0.3 1018127
08:00+22зсз5848100 0.0 1018373
11:00+28сз693252 0.0 10191596
14:00+30зсз7112670 0.0 10182367
17:00+31сз810225 0.0 10173156
20:00+26зсз343634 0.0 101743
17 мая, пн
пн1723:00+22з48428 0.0 1017101
02:00+21з474067 0.0 101788
05:00+20з474729 0.0 101897
08:00+25зсз46375 0.0 1018326
11:00+30зсз69250 0.0 10182264
14:00+32зсз810205 0.0 10173587
17:00+31зсз811205 0.0 10163573
20:00+25сз34355 0.0 101556
18 мая, вт
вт1823:00+21з484013 0.0 1015118
02:00+20зсз4104386 0.0 1014190
05:00+17зсз375968 0.1 1014131
08:00+23з464389 0.0 1013364
11:00+27зсз61035100 0.0 10122332
14:00+29зсз9122594 0.0 10103820
17:00+27сз1013285 0.0 10103106
20:00+21ссз913455 0.0 1012980
19 мая, ср
ср1923:00+16ссз713705 0.0 1013760
02:00+12с81281100 0.0 1015696
05:00+12с81279100 0.1 10171065
08:00+11с7117469 0.2 1019820
11:00+17ссв89415 0.3 10201811
14:00+18ссв79315 0.0 10211945
17:00+18ссв782987 0.0 10221941
20:00+14ссв5939100 0.0 1024317
20 мая, чт
чт2023:00+10св38490 0.0 1026150
02:00+8всв3350100 0.0 102740
05:00+7вюв125167 0.0 102811
08:00+12зсз1236100 0.0 1028524
11:00+17зсз343164 0.0 10281347
14:00+20зсз3428100 0.0 10261719
17:00+22зсз45265 0.0 10241853
20:00+18з33415 0.0 102432